#timestamp,LO_Frequency,Hit,StdDev 
1705424415.8,286047000.6,N
1705424435.6,286047001.2,N
1705424455.5,286046999.8,N
1705424475.3,286047002.7,N
1705424495.1,286047002.6,N
1705424515.9,286047001.6,N
1705424535.7,286047002.2,N
1705424555.5,286047002.4,N
1705424575.4,286047000.3,N
1705424595.2,286047002.0,N
1705424615.1,286047002.6,N
1705424616.0,286047002.6,N
1705424635.8,286047002.3,N
1705424655.6,286047002.7,N
1705424675.5,286047002.5,N
1705424695.3,286047002.0,N
1705424715.2,286046999.7,N
1705424735.9,286047002.5,N
1705424755.7,286047004.3,Y
1705424775.6,286046999.7,P
1705424795.4,286047002.1,N
1705424815.2,286047002.5,N
1705424835.1,286047002.5,N
1705424836.0,286047002.5,N
1705424855.8,286047002.2,N
1705424875.7,286047000.2,N
1705424895.5,286047000.2,N
1705424915.3,286047000.6,N
1705424935.2,286047000.3,N
1705424955.0,286047001.8,N
1705424955.9,286047001.8,N
1705424975.8,286047001.7,N
1705424995.6,286047001.5,N
1705425015.4,286047002.6,N
1705425035.3,286047002.1,N
1705425055.1,286047001.4,N
1705425056.0,286047001.4,N
1705425075.8,286047002.6,N
1705425095.7,286047000.1,N
1705425115.5,286047000.5,N
1705425135.4,286047000.3,N
1705425155.2,286047000.6,N
1705425175.0,286047000.8,N
1705425175.9,286047000.8,N
1705425195.8,286047001.2,N
1705425215.6,286046998.5,N
1705425235.5,286046999.3,N
1705425255.3,286046998.1,N
1705425275.1,286047000.0,N
1705425295.9,286047000.4,N
1705425315.7,286047000.9,N
1705425335.5,286046998.2,N
1705425355.4,286046998.5,N
1705425375.2,286046998.5,N
1705425395.1,286046998.3,N
1705425396.0,286046998.3,N
1705425415.8,286046998.3,N
1705425435.6,286047000.7,N
1705425455.5,286047002.8,N
1705425475.3,286047002.4,N
1705425495.2,286047001.6,N
1705425515.9,286047004.0,N
1705425535.8,286047001.7,N
1705425555.6,286047003.6,N
1705425575.4,286047001.3,N
1705425595.3,286047002.7,N
1705425615.1,286047002.7,N
1705425635.9,286047000.2,N
1705425655.7,286047002.6,N
1705425675.5,286047000.0,N
1705425695.4,286047000.2,N
1705425715.2,286047002.3,N
1705425735.1,286047001.0,N
1705425736.0,286047001.0,N
1705425755.8,286046998.1,N
1705425775.6,286046998.6,N
1705425795.5,286046998.7,N
1705425815.3,286047000.9,N
1705425835.2,286047000.3,N
1705425855.9,286047001.0,N
1705425875.7,286046998.8,N
1705425895.6,286046999.3,N
1705425915.4,286046999.4,N
1705425935.3,286046998.3,N
1705425955.1,286046998.7,N
1705425956.0,286046998.7,N
1705425975.8,286047000.7,N
1705425995.7,286046998.2,N
1705426015.5,286046999.9,N
1705426035.4,286047000.7,N
1705426055.2,286047001.0,N
1705426075.0,286047000.8,N
1705426075.9,286047000.8,N
1705426095.8,286046998.9,N
1705426115.6,286046998.5,N
1705426135.5,286046998.4,N
1705426155.3,286046998.5,N
1705426175.1,286046998.7,N
1705426195.9,286046998.1,N
1705426215.7,286046998.9,N
1705426235.6,286046999.4,N
1705426255.4,286047001.2,N
1705426275.2,286046998.4,N
1705426295.1,286047000.4,N
1705426296.0,286047000.4,N
1705426315.8,286047000.7,N
1705426335.7,286046999.9,N
1705426355.5,286047001.1,N
1705426405.4,286047015.9,E
1705426415.3,286047008.6,N
1705426435.1,286046995.3,P
1705426455.9,286046994.8,N
1705426475.7,286046991.7,N
1705426495.6,286046994.8,N
1705426515.4,286046994.4,N
1705426535.2,286046992.3,N
1705426555.1,286046992.4,N
1705426556.0,286046992.4,N
1705426575.8,286046992.4,N
1705426595.7,286046991.4,N
1705426615.5,286046988.7,N
1705426635.3,286046988.2,N
1705426655.2,286046986.3,N
1705426675.9,286046986.6,N
1705426695.7,286046984.7,Y
1705426715.6,286046990.8,P
1705426735.4,286046990.6,P
1705426755.3,286046990.6,P
1705426775.1,286046991.0,Y
1705426776.0,286046991.0,P
1705426795.8,286047001.1,P
1705426815.7,286047001.1,N
1705426835.5,286047000.9,N
1705426855.4,286047001.2,N
1705426875.2,286047000.8,N
1705426895.0,286047000.7,N
1705426895.9,286047000.7,N
1705426915.8,286047001.0,N
1705426935.6,286047000.0,N
1705426955.5,286046998.6,N
1705427005.3,286046999.0,E
1705427015.2,286046998.9,N
1705427035.1,286047000.1,P
1705427036.0,286047000.1,N
1705427055.8,286047000.0,N
1705427075.7,286046999.9,N
1705427095.5,286047002.7,Y
1705427115.3,286047002.1,P
1705427135.2,286047002.6,N
1705427155.0,286046999.7,N
1705427155.9,286046999.7,N
1705427175.8,286047002.0,N
1705427195.6,286047002.3,N
1705427215.4,286047000.1,N
1705427235.3,286047001.0,N
1705427255.1,286046998.2,N
1705427275.8,286046998.7,N
1705427295.7,286046999.1,N
1705427315.5,286046999.3,N
1705427335.4,286046999.1,N
1705427355.2,286046997.1,N
1705427375.0,286046996.6,N
1705427375.9,286046996.6,N
1705427395.8,286046996.9,N
1705427415.6,286046998.3,N
1705427435.4,286046998.5,N
1705427455.3,286047001.2,N
1705427475.1,286047001.0,N
1705427495.9,286047000.3,N
1705427515.7,286047000.2,N
1705427535.5,286047002.2,N
1705427555.4,286047001.6,N
1705427575.2,286047003.7,N
1705427595.0,286047003.9,N
1705427596.0,286047003.9,N
1705427615.8,286047003.2,N
1705427635.6,286047004.4,N
1705427655.5,286047001.5,N
1705427675.3,286047001.5,N
1705427695.1,286047002.3,N
1705427715.9,286047002.4,N
1705427735.7,286046999.8,N
1705427755.6,286047002.1,N
1705427775.4,286046999.7,N
1705427795.2,286047000.5,N
1705427815.1,286047000.2,N
1705427816.0,286047000.2,N
1705427835.8,286047000.5,N
1705427855.6,286047001.1,N
1705427875.5,286047001.1,N
1705427895.3,286046998.3,N
1705427915.2,286046998.2,N
1705427935.9,286046998.3,N
1705427955.7,286047000.0,N
1705427975.6,286046998.1,N
1705427995.4,286047000.9,N
